Date String (YYYY-MM-DD hh:mm:ss) UTC,Instrument flags,absolute air pressure of the measurement (hPa),sample flow rate (lpm),inlet stack bypass flow (lpm),air temperature of the measurement (°C),ambient temperature measured by the external sensor (°C),aerosol sample conditioner tube jacket temperature (°C),OPC LED temperature (°C),internal box temperature (°C),relative humidity of the measurement (%),span deviation,mass concentration of particles derived from Lorenz-Mie calculation of OPC scattering (μg/m³),mass concentration of particles derived from Lorenz-Mie calculation of OPC scattering (μg/m³),mass concentration of particles derived from Lorenz-Mie calculation of OPC scattering (μg/m³)
DateTimeUTC,F1_M11,P_M11,Q1_M11,Q2_M11,T1_M11,T2_M11,T3_M11,T4_M11,T5_M11,U1_M11,ZSPAN_M11,X2_M11,X0_M11,X1_M11
2024-03-14 02:00:00,SystemResetWarning,0822.1,5.00,000.00,021.0,020.2,000.0,029.6,022.8,27.1,0000.0,0003.27,0005.69,0002.91
2024-03-14 02:01:00,SystemResetWarning,0822.1,5.00,000.00,021.0,020.2,000.0,029.6,022.8,27.1,0000.0,0003.29,0005.62,0002.96
2024-03-14 02:02:00,SystemResetWarning,0822.1,4.99,000.00,021.0,020.2,000.0,029.6,022.8,27.2,0000.0,0003.30,0005.64,0003.01
2024-03-14 02:03:00,SystemResetWarning,0822.1,4.99,000.00,021.0,020.2,000.0,029.6,022.8,27.7,0000.0,0003.32,0005.58,0003.08
2024-03-14 02:04:00,SystemResetWarning,0822.1,5.01,000.00,021.0,020.2,000.0,029.6,022.8,27.5,0000.0,0003.37,0005.74,0003.13
2024-03-14 02:05:00,SystemResetWarning,0822.1,5.01,000.00,021.0,020.2,000.0,029.5,022.8,27.3,0000.0,0003.47,0006.17,0003.18
2024-03-14 02:06:00,SystemResetWarning,0822.1,5.00,000.00,021.0,020.2,000.0,029.5,022.8,27.3,0000.0,0003.54,0006.35,0003.23
2024-03-14 02:07:00,SystemResetWarning,0822.1,5.00,000.00,021.0,020.2,000.0,029.5,022.8,27.3,0000.0,0003.58,0006.40,0003.27
2024-03-14 02:08:00,SystemResetWarning,0822.1,5.01,000.00,021.0,020.2,000.0,029.5,022.8,27.2,0000.0,0003.64,0006.51,0003.32
2024-03-14 02:09:00,SystemResetWarning,0822.1,5.00,000.00,021.0,020.2,000.0,029.5,022.8,27.2,0000.0,0003.70,0007.00,0003.37
2024-03-14 02:10:00,SystemResetWarning,0822.2,4.99,000.00,020.9,020.2,000.0,029.5,022.8,27.3,0000.0,0003.71,0007.72,0003.41
2024-03-14 02:11:00,SystemResetWarning,0822.1,5.01,000.00,020.9,020.2,000.0,029.5,022.8,27.4,0000.0,0003.76,0007.26,0003.48
2024-03-14 02:12:00,SystemResetWarning,0822.1,5.00,000.00,020.9,020.2,000.0,029.5,022.8,27.3,0000.0,0003.82,0007.21,0003.54
2024-03-14 02:13:00,SystemResetWarning,0822.1,5.00,000.00,020.9,020.2,000.0,029.5,022.7,27.2,0000.0,0003.91,0007.36,0003.61
2024-03-14 02:14:00,SystemResetWarning,0822.2,5.00,000.00,020.9,020.2,000.0,029.5,022.7,27.3,0000.0,0003.96,0007.43,0003.66
2024-03-14 02:15:00,SystemResetWarning,0822.2,5.00,000.00,020.9,020.2,000.0,029.5,022.7,27.2,0000.0,0003.98,0007.41,0003.69
2024-03-14 02:16:00,SystemResetWarning,0822.2,5.00,000.00,020.9,020.2,000.0,029.5,022.7,27.3,0000.0,0003.97,0007.34,0003.71
2024-03-14 02:17:00,SystemResetWarning,0822.2,5.00,000.00,020.9,020.1,000.0,029.5,022.7,27.3,0000.0,0003.97,0007.26,0003.72
2024-03-14 02:18:00,SystemResetWarning,0822.2,5.00,000.00,020.9,020.2,000.0,029.5,022.7,27.2,0000.0,0003.97,0007.23,0003.73
2024-03-14 02:19:00,SystemResetWarning,0822.2,5.00,000.00,020.9,020.1,000.0,029.5,022.7,27.2,0000.0,0004.00,0007.33,0003.74
2024-03-14 02:20:00,SystemResetWarning,0822.2,5.00,000.00,020.9,020.1,000.0,029.5,022.7,27.2,0000.0,0004.03,0007.35,0003.76
2024-03-14 02:21:00,SystemResetWarning,0822.2,5.00,000.00,020.9,020.1,000.0,029.5,022.7,27.2,0000.0,0004.09,0006.45,0003.77
2024-03-14 02:22:00,SystemResetWarning,0822.2,5.00,000.00,020.9,020.1,000.0,029.5,022.7,27.2,0000.0,0004.12,0006.32,0003.78
2024-03-14 02:23:00,SystemResetWarning,0822.2,5.00,000.00,020.9,020.1,000.0,029.5,022.7,27.2,0000.0,0004.19,0006.70,0003.80
2024-03-14 02:24:00,SystemResetWarning,0822.2,5.00,000.00,020.9,020.1,000.0,029.5,022.7,27.2,0000.0,0004.25,0007.14,0003.83
2024-03-14 02:25:00,SystemResetWarning,0822.2,5.00,000.00,020.9,020.1,000.0,029.4,022.7,27.1,0000.0,0004.34,0007.70,0003.85
2024-03-14 02:26:00,SystemResetWarning,0822.2,5.00,000.00,020.9,020.1,000.0,029.4,022.7,27.3,0000.0,0004.42,0007.86,0003.88
2024-03-14 02:27:00,SystemResetWarning,0822.2,5.00,000.00,020.9,020.1,000.0,029.4,022.7,27.3,0000.0,0004.48,0008.01,0003.91
2024-03-14 02:28:00,SystemResetWarning,0822.3,5.00,000.00,020.9,020.1,000.0,029.4,022.7,27.3,0000.0,0004.54,0008.17,0003.94
2024-03-14 02:29:00,SystemResetWarning,0822.3,5.00,000.00,020.9,020.1,000.0,029.4,022.7,27.4,0000.0,0004.60,0008.34,0003.97
2024-03-14 02:30:00,SystemResetWarning,0822.2,5.00,000.00,020.8,020.1,000.0,029.4,022.6,27.4,0000.0,0004.61,0008.35,0003.99
2024-03-14 02:31:00,SystemResetWarning,0822.3,5.00,000.00,020.8,020.1,000.0,029.4,022.6,27.5,0000.0,0004.63,0008.36,0004.01
2024-03-14 02:32:00,SystemResetWarning,0822.2,5.00,000.00,020.8,020.1,000.0,029.4,022.7,27.5,0000.0,0004.62,0008.31,0004.02
2024-03-14 02:33:00,SystemResetWarning,0822.2,5.00,000.00,020.8,020.1,000.0,029.4,022.7,27.5,0000.0,0004.64,0008.39,0004.04
2024-03-14 02:34:00,SystemResetWarning,0822.3,5.00,000.00,020.8,020.0,000.0,029.4,022.6,27.6,0000.0,0004.65,0008.62,0004.05
2024-03-14 02:35:00,SystemResetWarning,0822.3,4.99,000.00,020.8,020.0,000.0,029.4,022.6,27.6,0000.0,0004.62,0008.50,0004.06
2024-03-14 02:36:00,SystemResetWarning,0822.3,5.00,000.00,020.8,020.0,000.0,029.4,022.6,27.6,0000.0,0004.58,0008.13,0004.06
2024-03-14 02:37:00,SystemResetWarning,0822.4,5.00,000.00,020.8,020.0,000.0,029.4,022.6,27.6,0000.0,0004.56,0008.13,0004.06
2024-03-14 02:38:00,SystemResetWarning,0822.3,5.00,000.00,020.8,020.0,000.0,029.4,022.6,27.7,0000.0,0004.53,0007.99,0004.05
2024-03-14 02:39:00,SystemResetWarning,0822.3,5.01,000.00,020.8,020.0,000.0,029.4,022.6,27.7,0000.0,0004.50,0007.88,0004.04
2024-03-14 02:40:00,SystemResetWarning,0822.3,5.01,000.00,020.8,020.0,000.0,029.4,022.6,27.8,0000.0,0004.53,0007.88,0004.05
2024-03-14 02:41:00,SystemResetWarning,0822.3,5.00,000.00,020.8,020.0,000.0,029.4,022.6,28.2,0000.0,0004.57,0007.94,0004.05
2024-03-14 02:42:00,SystemResetWarning,0822.3,4.99,000.00,020.8,020.0,000.0,029.4,022.6,27.9,0000.0,0004.57,0007.98,0004.05
2024-03-14 02:43:00,SystemResetWarning,0822.3,4.99,000.00,020.8,020.0,000.0,029.4,022.6,27.8,0000.0,0004.57,0008.11,0004.05
2024-03-14 02:44:00,SystemResetWarning,0822.3,5.01,000.00,020.8,020.0,000.0,029.4,022.6,27.7,0000.0,0004.61,0008.19,0004.06
2024-03-14 02:45:00,SystemResetWarning,0822.3,5.01,000.00,020.8,020.0,000.0,029.4,022.6,27.5,0000.0,0004.63,0008.08,0004.06
2024-03-14 02:46:00,SystemResetWarning,0822.3,4.99,000.00,020.8,020.0,000.0,029.3,022.6,27.4,0000.0,0004.63,0008.39,0004.06
2024-03-14 02:47:00,SystemResetWarning,0822.3,5.00,000.00,020.8,020.0,000.0,029.3,022.6,27.4,0000.0,0004.61,0008.56,0004.05
2024-03-14 02:48:00,SystemResetWarning,0822.4,5.00,000.00,020.8,020.0,000.0,029.3,022.6,27.4,0000.0,0004.63,0008.59,0004.06
2024-03-14 02:49:00,SystemResetWarning,0822.3,5.01,000.00,020.8,020.0,000.0,029.3,022.6,27.3,0000.0,0004.67,0008.82,0004.09
2024-03-14 02:50:00,SystemResetWarning,0822.3,5.01,000.00,020.7,020.0,000.0,029.3,022.6,27.3,0000.0,0004.69,0008.95,0004.11
2024-03-14 02:51:00,SystemResetWarning,0822.4,5.00,000.00,020.7,020.0,000.0,029.3,022.5,27.3,0000.0,0004.70,0009.41,0004.13
2024-03-14 02:52:00,SystemResetWarning,0822.3,5.00,000.00,020.7,020.0,000.0,029.3,022.5,27.3,0000.0,0004.71,0009.46,0004.15
2024-03-14 02:53:00,SystemResetWarning,0822.3,5.00,000.00,020.7,020.0,000.0,029.3,022.5,27.2,0000.0,0004.74,0010.14,0004.18
2024-03-14 02:54:00,SystemResetWarning,0822.4,5.00,000.00,020.7,020.0,000.0,029.3,022.5,27.2,0000.0,0004.81,0010.22,0004.21
2024-03-14 02:55:00,SystemResetWarning,0822.3,5.01,000.00,020.7,020.0,000.0,029.3,022.5,27.3,0000.0,0004.81,0010.06,0004.24
2024-03-14 02:56:00,SystemResetWarning,0822.3,5.01,000.00,020.7,020.0,000.0,029.3,022.5,27.4,0000.0,0004.80,0010.33,0004.28
2024-03-14 02:57:00,SystemResetWarning,0822.4,5.01,000.00,020.7,019.9,000.0,029.3,022.5,27.4,0000.0,0004.86,0010.27,0004.32
2024-03-14 02:58:00,SystemResetWarning,0822.3,4.99,000.00,020.7,019.9,000.0,029.3,022.5,27.5,0000.0,0004.95,0010.02,0004.37
2024-03-14 02:59:00,SystemResetWarning,0822.3,4.99,000.00,020.7,019.9,000.0,029.3,022.5,27.5,0000.0,0005.01,0010.18,0004.41
